Location: Brno
(49.2000°N, 16.6330°E)
Time: 21:27:34
(UTC+01:00)

RESURS DK-1 - Visible Passes

Search period start: 10 December 2016 00:00
Search period end: 20 December 2016 00:00
Orbit: 555 x 566 km, 69.9° (Epoch: 10 December)

Date Brightness Start Highest point End Pass type
(mag) Time Alt. Az. Time Alt. Az. Time Alt. Az.
10 Dec 4.9 18:44:35 10° NNW 18:45:10 13° NNW 18:45:10 13° NNW visible
11 Dec 4.4 17:06:50 10° NNE 17:08:22 12° NE 17:08:22 12° NE visible
11 Dec 4.6 18:43:14 10° NNW 18:44:19 17° NNW 18:44:19 17° NNW visible
12 Dec 4.2 17:05:03 10° N 17:07:17 14° NE 17:07:39 14° NE visible
12 Dec 4.2 18:41:55 10° NNW 18:43:37 23° NNW 18:43:37 23° NNW visible
13 Dec 4.0 17:03:27 10° N 17:06:10 17° NE 17:07:07 15° ENE visible
13 Dec 3.6 18:40:38 10° NNW 18:43:06 34° NNW 18:43:06 34° NNW visible
14 Dec 3.8 17:01:55 10° N 17:05:02 20° NE 17:06:52 15° ENE visible
14 Dec 3.0 18:39:22 10° NW 18:42:52 55° WNW 18:42:52 55° WNW visible
15 Dec 3.5 17:00:26 10° N 17:03:52 24° NE 17:07:05 11° E visible
15 Dec 3.2 18:38:09 10° NW 18:42:11 48° WSW 18:43:07 40° SSW visible
16 Dec 3.2 16:59:00 10° NNW 17:02:42 29° NE 17:06:22 10° ESE visible
16 Dec 3.8 18:36:59 10° NW 18:40:50 36° WSW 18:44:27 11° S visible
17 Dec 2.9 16:57:35 10° NNW 17:01:30 36° NE 17:05:22 10° ESE visible
17 Dec 4.4 18:35:52 10° NW 18:39:27 28° WSW 18:43:00 10° SSW visible
18 Dec 2.6 16:56:12 10° NNW 17:00:16 46° NE 17:04:17 10° SE visible
18 Dec 4.9 18:34:51 10° WNW 18:38:03 22° WSW 18:41:14 10° SSW visible
19 Dec 6.2 07:02:28 10° ESE 07:03:10 10° E 07:03:53 10° E visible
19 Dec 2.4 16:54:52 10° NNW 16:59:02 60° ENE 17:03:08 10° SE visible
19 Dec 5.4 18:33:58 10° WNW 18:36:37 17° WSW 18:39:16 10° SW visible
